Butler, PA

3:10 AM EST on November 19, 2019 (GMT -0500)
Butler County-Scholter

Weather History for KBTP - October, 2019

Change the Weather History Date:

Wednesday, October 16, 2019

  Actual Average Record
Temperature  
Mean Temperature 52 °F -  
Max Temperature 60 °F 58 °F 80 °F (1968)
Min Temperature 44 °F 40 °F 27 °F (1969)
Degree Days  
Heating Degree Days 14    
Growing Degree Days 2 (Base 50)    
Moisture  
Dew Point 45 °F    
Average Humidity 84    
Maximum Humidity 100    
Minimum Humidity 57    
Precipitation  
Precipitation 1.05 in - - ()
Sea Level Pressure  
Sea Level Pressure 29.69 in    
Wind  
Wind Speed 8 mph (SW)    
Max Wind Speed 17 mph    
Max Gust Speed 25 mph    
Visibility 9 miles    
Events Rain , Thunderstorm    
Averages and records for this station are not official NWS values.
T = Trace of Precipitation, MM = Missing Value Source: NWS Daily Summary

Daily Weather History Graph

Daily Weather History Graph

Search for Another Location

Airport or City:

Astronomy

Oct. 16, 2019 Rise Set
Actual Time 7:31 AM EDT 6:38 PM EDT
Civil Twilight 7:04 AM EDT 7:05 PM EDT
Nautical Twilight 6:32 AM EDT 7:37 PM EDT
Astronomical Twilight 6:00 AM EDT 8:09 PM EDT
Moon 8:29 PM EDT (10/16) 10:01 AM EDT (10/16)
Length of Visible Light 12h 01m
Length of Day
11h 06m
Waning Gibbous, 93% of the Moon is Illuminated
Oct 16
Waning Gibbous
Oct 21
Last Quarter
Oct 27
New
Nov 4
First Quarter
Nov 12
Full

Hourly Weather History & Observations

Time (EDT) Temp. Windchill Dew Point Humidity Pressure Visibility Wind Dir Wind Speed Gust Speed Precip Events Conditions
12:56 AM 55.9 °F - 43.0 °F 62% 29.85 in 10.0 mi South 5.8 mph - N/A   Scattered Clouds
1:56 AM 57.0 °F - 42.1 °F 57% 29.82 in 10.0 mi South 4.6 mph - N/A   Clear
2:56 AM 57.9 °F - 43.0 °F 58% 29.79 in 10.0 mi South 8.1 mph - N/A   Clear
3:56 AM 57.9 °F - 43.0 °F 58% 29.76 in 10.0 mi South 6.9 mph - N/A   Clear
4:56 AM 57.9 °F - 43.0 °F 58% 29.73 in 10.0 mi South 5.8 mph - N/A   Partly Cloudy
5:56 AM 59.0 °F - 44.1 °F 58% 29.70 in 10.0 mi South 8.1 mph - N/A   Overcast
6:56 AM 59.0 °F - 46.0 °F 62% 29.69 in 10.0 mi SSW 6.9 mph - 0.00 in Rain Light Rain
7:07 AM 55.4 °F - 48.2 °F 77% 29.69 in 7.0 mi SW 15.0 mph 25.3 mph 0.05 in Rain , Thunderstorm Thunderstorms and Rain
7:45 AM 53.6 °F - 51.8 °F 94% 29.68 in 8.0 mi South 9.2 mph - 0.15 in Rain Rain
7:56 AM 53.1 °F - 51.1 °F 93% 29.69 in 10.0 mi South 9.2 mph - 0.19 in Rain Rain
8:07 AM 53.6 °F - 51.8 °F 94% 29.67 in 10.0 mi South 10.4 mph - 0.03 in Rain Rain
8:15 AM 51.8 °F - 51.8 °F 100% 29.66 in 9.0 mi South 6.9 mph - 0.05 in Rain Rain
8:56 AM 53.1 °F - 51.1 °F 93% 29.65 in 10.0 mi South 6.9 mph - 0.08 in Rain Light Rain
9:31 AM 53.6 °F - 51.8 °F 94% 29.63 in 5.0 mi South 10.4 mph - 0.16 in Rain Heavy Rain
9:41 AM 53.6 °F - 51.8 °F 94% 29.63 in 7.0 mi South 10.4 mph - 0.20 in Rain Rain
9:56 AM 53.1 °F - 52.0 °F 96% 29.68 in 3.0 mi West 10.4 mph 17.3 mph 0.35 in Rain Heavy Rain
10:56 AM 48.9 °F - 48.9 °F 100% 29.70 in 10.0 mi West 6.9 mph - 0.22 in Rain Rain
11:32 AM 48.2 °F - 48.2 °F 100% 29.68 in 10.0 mi Calm Calm - 0.08 in Rain Rain
11:47 AM 48.2 °F - 46.4 °F 93% 29.67 in 10.0 mi Calm Calm - 0.10 in Rain Rain
11:56 AM 48.9 °F - 48.0 °F 97% 29.69 in 10.0 mi Calm Calm - 0.11 in Rain Rain
12:04 PM 48.2 °F - 46.4 °F 93% 29.67 in 8.0 mi North 3.5 mph - 0.01 in Rain Rain
12:54 PM 48.2 °F - 46.4 °F 93% 29.66 in 10.0 mi SSW 3.5 mph - 0.04 in Rain Light Rain
12:56 PM 48.0 °F - 46.9 °F 96% 29.68 in 10.0 mi SSW 5.8 mph - 0.04 in Rain Light Rain
1:07 PM 48.2 °F - 46.4 °F 93% 29.66 in 10.0 mi WSW 12.7 mph 18.4 mph 0.00 in Rain Light Rain
1:46 PM 48.2 °F - 46.4 °F 93% 29.65 in 10.0 mi West 9.2 mph - 0.00 in   Overcast
1:56 PM 48.9 °F - 46.0 °F 90% 29.67 in 10.0 mi WSW 11.5 mph 17.3 mph 0.00 in   Overcast
2:42 PM 48.2 °F - 44.6 °F 87% 29.65 in 10.0 mi West 13.8 mph 21.9 mph 0.00 in Rain Light Rain
2:56 PM 46.9 °F - 42.1 °F 83% 29.68 in 10.0 mi West 16.1 mph 21.9 mph 0.00 in   Overcast
3:44 PM 48.2 °F - 39.2 °F 71% 29.66 in 10.0 mi West 8.1 mph - N/A   Overcast
3:56 PM 48.0 °F - 39.9 °F 74% 29.68 in 10.0 mi West 9.2 mph 18.4 mph N/A   Overcast
4:20 PM 48.2 °F - 39.2 °F 71% 29.66 in 10.0 mi WSW 9.2 mph 18.4 mph N/A   Overcast
4:46 PM 46.4 °F 40.4 °F 39.2 °F 76% 29.66 in 10.0 mi WSW 13.8 mph - N/A   Overcast
4:56 PM 46.9 °F - 39.0 °F 74% 29.68 in 10.0 mi West 11.5 mph - N/A   Overcast
5:56 PM 46.0 °F 41.0 °F 39.9 °F 79% 29.68 in 10.0 mi WSW 10.4 mph 21.9 mph N/A   Overcast
6:56 PM 46.0 °F 39.0 °F 41.0 °F 83% 29.68 in 10.0 mi West 17.3 mph 23.0 mph 0.00 in   Overcast
7:56 PM 45.0 °F 38.5 °F 41.0 °F 86% 29.69 in 10.0 mi WSW 13.8 mph 20.7 mph N/A   Overcast
8:56 PM 45.0 °F 38.5 °F 43.0 °F 93% 29.68 in 10.0 mi WSW 13.8 mph 23.0 mph 0.00 in Rain Light Rain
9:56 PM 45.0 °F 38.2 °F 43.0 °F 93% 29.68 in 4.0 mi WSW 15.0 mph 23.0 mph 0.02 in Rain Light Rain
10:15 PM 44.6 °F 38.8 °F 44.6 °F 100% 29.65 in 10.0 mi West 11.5 mph 19.6 mph 0.00 in Rain Light Rain
10:56 PM 45.0 °F 39.7 °F 43.0 °F 93% 29.68 in 10.0 mi West 10.4 mph 23.0 mph 0.03 in Rain Light Rain
11:05 PM 44.6 °F 40.2 °F 42.8 °F 93% 29.66 in 10.0 mi West 8.1 mph 21.9 mph 0.00 in Rain Light Rain
11:56 PM 44.1 °F 39.5 °F 43.0 °F 96% 29.68 in 6.0 mi WNW 8.1 mph - 0.01 in Rain Light Rain